EW4711 Weather Reports


Display with metric or nautical units.
time (UTC)temp
F
wind
direction
speed
MPH
gust
MPH
rain 1hr
in
rain 24hr
in
rain mn
in
humidity
%
barometer
mb
20260903154103 79 341 1.0 2.0 0.00 0.49 0.00 87 1012.6
20260903153603 78 334 2.0 5.0 0.00 0.49 0.00 87 1012.6
20260903153103 78 282 2.0 7.0 0.00 0.49 0.00 86 1012.6
20260903152604 79 291 1.0 7.0 0.00 0.49 0.00 87 1012.5
20260903152103 78 304 2.0 10.0 0.00 0.49 0.00 86 1012.6
20260903151603 79 266 2.0 7.0 0.00 0.49 0.00 84 1012.6
20260903150603 80 316 4.0 7.0 0.00 0.49 0.00 88 1012.6
20260903145604 77 345 1.0 3.0 0.00 0.49 0.00 89 1012.6
20260903145102 77 316 2.0 8.0 0.00 0.49 0.00 89 1012.7
20260903144603 77 306 2.0 6.0 0.00 0.49 0.00 89 1012.7
20260903144102 77 298 2.0 8.0 0.00 0.49 0.00 89 1012.6
20260903143603 77 333 1.0 6.0 0.00 0.49 0.00 88 1012.7
20260903143103 77 271 2.0 7.0 0.00 0.49 0.00 88 1012.6
20260903142602 77 288 1.0 3.0 0.00 0.49 0.00 88 1012.6
20260903142102 77 327 2.0 6.0 0.00 0.49 0.00 90 1012.6
20260903141603 77 297 2.0 9.0 0.00 0.49 0.00 89 1012.6
20260903141102 77 302 3.0 9.0 0.00 0.49 0.00 88 1012.6
20260903140602 77 289 1.0 5.0 0.00 0.49 0.00 87 1012.6
20260903135602 78 299 3.0 8.0 0.00 0.49 0.00 90 1012.6
20260903135103 77 249 2.0 8.0 0.00 0.49 0.00 91 1012.6
20260903134603 76 257 2.0 7.0 0.00 0.49 0.00 93 1012.7
20260903134102 75 273 2.0 6.0 0.00 0.49 0.00 95 1012.7
20260903133603 74 261 1.0 3.0 0.00 0.49 0.00 98 1012.7
20260903133102 73 295 1.0 3.0 0.00 0.49 0.00 100 1012.7
20260903132603 73 263 1.0 3.0 0.00 0.49 0.00 100 1012.7
20260903132103 72 301 1.0 2.0 0.00 0.49 0.00 99 1012.8
20260903131603 72 274 1.0 3.0 0.00 0.49 0.00 100 1012.8
20260903131102 72 305 1.0 3.0 0.00 0.49 0.00 100 1012.8
20260903130602 71 283 1.0 3.0 0.00 0.49 0.00 100 1012.7
20260903125603 71 253 1.0 2.0 0.00 0.49 0.00 99 1013.0
20260903125102 71 235 1.0 2.0 0.00 0.49 0.00 100 1013.0
20260903124602 70 353 1.0 3.0 0.00 0.49 0.00 100 1013.2
20260903124103 70 286 1.0 3.0 0.00 0.49 0.00 99 1013.2
20260903123103 70 286 1.0 3.0 0.00 0.49 0.00 99 1013.2
20260903122603 70 240 0.0 5.0 0.00 0.49 0.00 99 1013.2
20260903122103 70 268 1.0 5.0 0.00 0.50 0.00 99 1013.2
20260903121602 70 303 2.0 3.0 0.00 0.50 0.00 99 1013.2
20260903121103 70 310 1.0 3.0 0.00 0.51 0.00 99 1013.1
20260903120603 70 301 1.0 6.0 0.00 0.67 0.00 99 1013.1
20260903115602 70 297 2.0 6.0 0.00 1.01 0.00 99 1012.9
20260903115103 70 284 1.0 2.0 0.00 1.06 0.00 99 1012.9
20260903114602 69 295 1.0 3.0 0.00 1.28 0.00 99 1012.8
20260903113602 69 321 1.0 3.0 0.00 1.78 0.00 99 1012.7
20260903113103 69 305 2.0 6.0 0.00 1.94 0.00 99 1012.6
20260903112603 69 308 1.0 5.0 0.00 1.94 0.00 99 1012.6
20260903112102 69 290 2.0 5.0 0.00 1.94 0.00 99 1012.5
20260903111603 69 306 1.0 3.0 0.00 1.94 0.00 99 1012.5
20260903111102 69 301 0.0 3.0 0.00 1.94 0.00 99 1012.4
20260903105603 69 297 0.0 1.0 0.00 1.94 0.00 99 1012.2
20260903105102 69 297 0.0 2.0 0.00 1.94 0.00 99 1012.2
20260903103603 69 334 2.0 3.0 0.00 1.94 0.00 99 1012.0
20260903103103 69 308 1.0 2.0 0.00 1.94 0.00 99 1011.9
20260903102602 69 308 1.0 2.0 0.00 1.94 0.00 99 1012.0
20260903102102 68 292 0.0 2.0 0.00 1.94 0.00 99 1012.0
20260903101603 68 277 0.0 2.0 0.00 1.94 0.00 99 1011.9
20260903100603 68 277 0.0 1.0 0.00 1.94 0.00 99 1011.8
20260903100103 68 284 0.0 1.0 0.00 1.94 0.00 99 1011.8
20260903095602 68 301 0.0 2.0 0.00 1.94 0.00 99 1011.7
20260903095102 68 309 0.0 2.0 0.00 1.94 0.00 99 1011.6
20260903094602 68 284 0.0 0.0 0.00 1.94 0.00 99 1011.5
20260903094103 68 284 0.0 1.0 0.00 1.94 0.00 99 1011.5
20260903093103 68 277 0.0 0.0 0.00 1.94 0.00 99 1011.4
20260903092603 68 277 0.0 1.0 0.00 1.94 0.00 99 1011.5
20260903092102 68 277 0.0 0.0 0.00 1.94 0.00 99 1011.5
20260903091603 68 277 0.0 0.0 0.00 1.94 0.00 99 1011.4
20260903091103 68 277 0.0 0.0 0.00 1.94 0.00 99 1011.3
20260903090602 68 277 0.0 0.0 0.00 1.94 0.00 99 1011.3
20260903085103 68 277 0.0 0.0 0.00 1.94 0.00 99 1011.3
20260903084103 68 265 0.0 1.0 0.00 1.94 0.00 99 1011.4
20260903083603 69 310 0.0 0.0 0.00 1.94 0.00 99 1011.3
20260903082603 69 310 0.0 0.0 0.00 1.94 0.00 99 1011.3
20260903082103 69 310 1.0 3.0 0.00 1.94 0.00 99 1011.3
20260903081603 69 313 0.0 1.0 0.00 1.94 0.00 99 1011.2
20260903080603 69 311 1.0 2.0 0.00 1.94 0.00 98 1011.2
20260903074602 69 305 0.0 2.0 0.00 1.94 0.00 99 1011.2
20260903073103 69 261 1.0 2.0 0.00 1.94 0.00 99 1011.2
20260903072603 69 254 1.0 3.0 0.00 1.94 0.00 99 1011.0
20260903072103 69 279 1.0 3.0 0.00 1.94 0.00 99 1011.0
20260903071103 69 277 1.0 3.0 0.00 1.94 0.00 99 1011.1
20260903070603 69 272 1.0 2.0 0.00 1.94 0.00 99 1011.3
20260903065602 69 270 1.0 3.0 0.00 1.94 0.00 99 1011.4
20260903065102 69 251 1.0 6.0 0.00 1.94 0.00 99 1011.4
20260903064602 69 295 3.0 12.0 0.00 1.94 0.00 99 1011.4
20260903064102 69 256 2.0 6.0 0.00 1.94 0.00 99 1011.4
20260903062602 69 265 2.0 3.0 0.00 1.94 0.00 99 1011.3
20260903062103 69 231 2.0 6.0 0.00 1.94 0.00 99 1011.4
20260903061102 69 269 2.0 8.0 0.00 1.94 0.00 99 1011.4
20260903060603 69 243 1.0 2.0 0.00 1.94 0.00 99 1011.2
20260903055602 69 331 2.0 3.0 0.00 1.94 0.00 99 1011.3
20260903055103 69 291 1.0 5.0 0.00 1.94 0.00 99 1011.2
20260903054603 69 324 1.0 3.0 0.00 1.94 0.00 99 1011.3
20260903054103 69 285 2.0 6.0 0.00 1.94 0.00 99 1011.3
20260903053602 69 275 2.0 5.0 0.00 1.94 0.00 99 1011.3
20260903053103 69 252 3.0 8.0 0.00 1.94 0.00 99 1011.4
20260903052603 69 254 2.0 6.0 0.00 1.94 0.00 99 1011.2
20260903052103 69 256 2.0 6.0 0.00 1.94 0.00 99 1011.4
20260903051603 69 307 2.0 8.0 0.00 1.94 0.00 99 1011.3
20260903051102 69 273 1.0 5.0 0.00 1.94 0.00 99 1011.3
20260903050602 69 286 1.0 5.0 0.00 1.94 0.00 99 1011.3
20260903045603 69 266 3.0 8.0 0.00 1.94 0.00 99 1011.2
20260903045103 69 246 3.0 8.0 0.00 1.94 0.00 99 1011.3
20260903044603 69 276 1.0 3.0 0.00 1.94 0.00 99 1011.2
20260903044103 69 282 1.0 5.0 0.00 1.94 0.00 99 1011.1
20260903043603 69 259 1.0 3.0 0.00 1.94 0.00 99 1010.9
20260903043103 69 248 2.0 5.0 0.00 1.94 0.00 99 1010.8
20260903042603 69 277 2.0 9.0 0.00 1.94 0.00 99 1010.8
20260903042102 69 251 1.0 3.0 0.00 1.94 0.00 99 1010.7
20260903041602 69 236 1.0 3.0 0.00 1.94 0.00 99 1010.7
20260903041102 69 248 1.0 7.0 0.00 1.94 0.00 99 1010.5
20260903040602 69 252 1.0 6.0 0.00 1.94 0.00 99 1010.6
20260903035603 69 268 1.0 7.0 0.00 1.94 1.94 99 1010.6
20260903035102 69 245 1.0 6.0 0.00 1.94 1.94 99 1010.4
20260903034604 69 226 1.0 3.0 0.00 1.94 1.94 99 1010.3
20260903034103 69 250 1.0 7.0 0.00 1.94 1.94 99 1010.6
20260903033603 69 258 0.0 2.0 0.00 1.94 1.94 99 1010.6
20260903033102 69 265 1.0 8.0 0.00 1.94 1.94 99 1010.8
20260903032102 69 228 2.0 6.0 0.00 1.94 1.94 99 1010.9
20260903031603 69 235 1.0 3.0 0.00 1.94 1.94 99 1011.0
20260903031102 69 240 2.0 7.0 0.00 1.94 1.94 99 1011.1
20260903030603 69 229 2.0 5.0 0.00 1.94 1.94 99 1011.1
20260903025603 69 231 2.0 5.0 0.00 1.94 1.94 98 1011.1
20260903025102 69 240 1.0 6.0 0.00 1.94 1.94 98 1011.2
20260903024603 69 195 1.0 3.0 0.00 1.94 1.94 98 1011.2
20260903023602 69 244 2.0 7.0 0.01 1.94 1.94 98 1011.7
20260903023103 69 236 2.0 8.0 0.01 1.94 1.94 98 1012.0
20260903022603 69 234 2.0 12.0 0.04 1.94 1.94 99 1012.0
20260903022103 69 224 2.0 3.0 0.15 1.94 1.94 98 1011.9
20260903021602 69 277 2.0 6.0 0.16 1.94 1.94 98 1011.8
20260903021104 69 238 2.0 8.0 0.16 1.94 1.94 98 1011.7
20260903020603 69 237 1.0 3.0 0.16 1.94 1.94 98 1011.5
20260903015603 69 246 1.0 8.0 0.16 1.94 1.94 98 1011.7
20260903014603 69 257 1.0 6.0 0.16 1.94 1.94 98 1012.0
20260903014102 69 223 1.0 3.0 0.17 1.94 1.94 98 1011.8
20260903013103 69 265 2.0 8.0 0.16 1.93 1.93 98 1012.2
20260903012603 69 208 2.0 5.0 0.13 1.90 1.90 98 1012.3
20260903012103 69 321 2.0 5.0 0.02 1.79 1.79 98 1012.6
20260903011603 69 310 1.0 3.0 0.01 1.78 1.78 98 1011.4
20260903011103 69 231 0.0 2.0 0.02 1.78 1.78 98 1011.0
20260903010602 69 235 1.0 3.0 0.03 1.78 1.78 98 1011.0
20260903005602 69 261 1.0 3.0 0.06 1.78 1.78 98 1011.0
20260903005103 69 262 1.0 3.0 0.07 1.78 1.78 98 1010.8
20260903004103 69 165 1.0 3.0 0.08 1.77 1.77 97 1010.1
20260903003603 69 124 0.0 2.0 0.09 1.77 1.77 97 1010.2
20260903001603 69 50 1.0 3.0 0.16 1.77 1.77 97 1010.3
20260903001103 69 3 1.0 8.0 0.18 1.76 1.76 97 1010.3
20260903000602 69 6 2.0 8.0 0.26 1.75 1.75 96 1010.3
20260902235603 70 23 2.0 5.0 0.26 1.72 1.72 96 1010.5
20260902234603 70 14 2.0 9.0 0.25 1.70 1.70 96 1011.3
20260902234102 70 355 3.0 13.0 0.24 1.69 1.69 95 1011.5
20260902233603 70 10 3.0 13.0 0.23 1.68 1.68 95 1012.0
20260902233104 71 10 5.0 16.0 0.21 1.66 1.66 94 1012.5
20260902232603 71 12 7.0 16.0 0.19 1.64 1.64 93 1012.7
20260902231603 73 30 5.0 16.0 0.16 1.61 1.61 93 1012.6
20260902231103 74 2 10.0 20.0 0.13 1.58 1.58 92 1012.3
20260902230603 74 325 8.0 14.0 0.04 1.49 1.49 91 1013.2
20260902225103 76 8 2.0 3.0 0.01 1.46 1.46 88 1011.5
20260902224603 77 20 4.0 12.0 0.00 1.45 1.45 86 1011.5
20260902224103 77 352 3.0 12.0 0.00 1.45 1.45 86 1011.2
20260902223603 78 23 6.0 13.0 0.00 1.45 1.45 86 1011.0
20260902223103 79 355 5.0 20.0 0.00 1.45 1.45 85 1010.6
20260902222603 80 353 13.0 26.0 0.00 1.45 1.45 85 1010.8
20260902222103 81 340 8.0 14.0 0.00 1.45 1.45 87 1010.6
20260902221603 82 223 2.0 10.0 0.00 1.45 1.45 87 1009.4
20260902221104 82 224 2.0 6.0 0.00 1.45 1.45 87 1009.5
20260902220603 82 227 2.0 5.0 0.00 1.45 1.45 87 1009.7
20260902215603 83 226 1.0 5.0 0.00 1.45 1.45 86 1009.4
20260902215103 83 222 1.0 8.0 0.00 1.45 1.45 85 1009.4
20260902214603 83 236 2.0 8.0 0.00 1.45 1.45 86 1009.2
20260902214103 83 240 2.0 8.0 0.00 1.45 1.45 86 1009.1
20260902213603 83 198 1.0 3.0 0.00 1.45 1.45 86 1009.2
20260902213103 83 290 2.0 9.0 0.00 1.45 1.45 85 1009.2
20260902212603 83 239 2.0 6.0 0.00 1.45 1.45 86 1009.4
20260902212103 83 238 1.0 6.0 0.00 1.45 1.45 86 1010.0
20260902211603 83 275 3.0 9.0 0.00 1.45 1.45 86 1010.1
20260902211103 82 244 2.0 8.0 0.00 1.45 1.45 88 1010.5
20260902210602 82 300 2.0 5.0 0.00 1.45 1.45 88 1010.5
20260902205603 81 310 2.0 7.0 0.00 1.45 1.45 88 1010.5
20260902205103 81 256 2.0 10.0 0.00 1.45 1.45 87 1010.7
20260902204603 81 273 0.0 3.0 0.00 1.45 1.45 88 1010.8
20260902204103 81 280 2.0 8.0 0.00 1.45 1.45 87 1010.9
20260902203603 81 222 1.0 6.0 0.00 1.45 1.45 87 1010.8
20260902203103 81 282 2.0 12.0 0.00 1.45 1.45 86 1011.0
20260902202603 81 271 2.0 3.0 0.00 1.45 1.45 86 1011.1
20260902202103 82 245 2.0 12.0 0.00 1.45 1.45 85 1011.2
20260902201603 82 277 2.0 8.0 0.00 1.45 1.45 85 1011.3
20260902200603 82 255 2.0 5.0 0.00 1.45 1.45 84 1011.5
20260902200103 83 300 1.0 3.0 0.00 1.45 1.45 84 1011.7
20260902195603 83 245 1.0 8.0 0.00 1.45 1.45 83 1011.8
20260902195103 83 278 3.0 8.0 0.00 1.45 1.45 83 1011.9
20260902194103 84 246 4.0 9.0 0.00 1.45 1.45 82 1011.8
20260902193603 84 290 2.0 6.0 0.00 1.45 1.45 83 1012.0
20260902193103 84 304 2.0 12.0 0.00 1.45 1.45 83 1012.1
20260902192603 83 306 2.0 8.0 0.00 1.45 1.45 84 1012.1
20260902191603 83 293 3.0 5.0 0.00 1.45 1.45 83 1012.1
20260902191103 83 295 3.0 7.0 0.00 1.45 1.45 85 1011.9
20260902190603 82 255 2.0 9.0 0.00 1.45 1.45 84 1012.0
20260902185603 83 292 3.0 10.0 0.00 1.45 1.45 84 1012.1
20260902184603 83 298 3.0 10.0 0.00 1.45 1.45 83 1012.0
20260902184103 83 280 2.0 9.0 0.00 1.45 1.45 84 1012.0
20260902183603 82 280 2.0 3.0 0.00 1.45 1.45 85 1012.1
20260902182603 82 315 2.0 7.0 0.00 1.45 1.45 86 1012.4
20260902182103 81 299 2.0 7.0 0.00 1.45 1.45 86 1012.4
20260902181603 81 264 4.0 13.0 0.00 1.45 1.45 85 1012.2
20260902181103 81 306 2.0 9.0 0.00 1.45 1.45 86 1012.3
20260902180603 81 314 3.0 12.0 0.00 1.45 1.45 87 1012.3
20260902180104 80 230 2.0 13.0 0.00 1.45 1.45 87 1012.2
20260902175102 80 259 3.0 9.0 0.00 1.45 1.45 87 1012.4
20260902174603 80 284 2.0 7.0 0.00 1.45 1.45 89 1012.5
20260902173603 78 289 2.0 6.0 0.00 1.45 1.45 90 1012.6
20260902173103 78 272 3.0 10.0 0.00 1.45 1.45 90 1012.8
20260902172603 78 246 2.0 8.0 0.00 1.45 1.45 90 1012.8
20260902172103 78 247 2.0 5.0 0.00 1.45 1.45 91 1012.9
20260902171103 77 262 2.0 8.0 0.00 1.45 1.45 89 1012.6
20260902170603 77 225 2.0 8.0 0.00 1.45 1.45 89 1012.4
20260902170103 78 276 1.0 3.0 0.00 1.45 1.45 88 1012.7
20260902165603 78 294 2.0 8.0 0.00 1.45 1.45 88 1013.3
20260902164603 79 343 2.0 12.0 0.00 1.45 1.45 86 1014.1
20260902164103 80 307 5.0 16.0 0.00 1.45 1.45 85 1014.3
20260902163602 80 294 7.0 16.0 0.00 1.45 1.45 84 1014.1
20260902163103 81 309 5.0 12.0 0.00 1.45 1.45 86 1013.6
20260902162603 81 294 2.0 10.0 0.00 1.45 1.45 85 1013.2
20260902162103 81 312 2.0 8.0 0.00 1.45 1.45 86 1012.9
20260902161604 81 257 1.0 9.0 0.00 1.45 1.45 86 1012.8
20260902161103 81 262 4.0 12.0 0.00 1.45 1.45 86 1012.8
20260902160603 80 251 2.0 9.0 0.00 1.45 1.45 86 1012.9
20260902155602 80 233 4.0 13.0 0.00 1.45 1.45 86 1012.9
20260902155103 80 277 3.0 8.0 0.00 1.45 1.45 87 1013.1
20260902154603 79 278 3.0 12.0 0.00 1.45 1.45 88 1013.1